Weather History for Mount Vernon, IL

Change the Weather History Date:

Monday, March 4, 2013

  Actual Average Record
Temperature  
Mean Temperature 40 °F -  
Max Temperature 48 °F 46 °F 66 °F (2004)
Min Temperature 33 °F 29 °F 6 °F (2002)
Degree Days  
Heating Degree Days 24    
Moisture  
Dew Point 27 °F    
Average Humidity 59    
Maximum Humidity 75    
Minimum Humidity 46    
Precipitation  
Precipitation 0.00 in - - ()
Sea Level Pressure  
Sea Level Pressure 29.96 in    
Wind  
Wind Speed 8 mph (ESE)    
Max Wind Speed 17 mph    
Max Gust Speed 26 mph    
Visibility 10 miles    
Events      
Averages and records for this station are not official NWS values.
T = Trace of Precipitation, MM = Missing Value Source: NWS Daily Summary

Daily Weather History Graph

Daily Weather History Graph

Search for Another Location

Airport:

Trip Planner

Search our weather history database for the weather conditions in past years. The results will help you decide how hot, cold, wet, or windy it might be!

Date:

Astronomy

Mar. 04, 2013 Rise Set
Actual Time 6:22 AM CST 5:51 PM CST
Civil Twilight 5:56 AM CST 6:18 PM CST
Nautical Twilight 5:25 AM CST 6:49 PM CST
Astronomical Twilight 4:55 AM CST 7:19 PM CST
Moon 12:28 AM CST (3/4) 10:37 AM CST (3/4)
Length of Visible Light 12h 22m
Length of Day
11h 29m
Waning Gibbous, 52% of the Moon is Illuminated
Mar 4
Waning Gibbous
Mar 4
Last Quarter
Mar 11
New
Mar 19
First Quarter
Mar 27
Full

Hourly Weather History & Observations

Time (CST) Temp. Windchill Dew Point Humidity Pressure Visibility Wind Dir Wind Speed Gust Speed Precip Events Conditions
12:15 AM 33.8 °F 28.6 °F 21.2 °F 60% 30.11 in 10.0 mi ESE 5.8 mph - N/A   Overcast
12:35 AM 33.8 °F 29.6 °F 21.2 °F 60% 30.11 in 10.0 mi ESE 4.6 mph - N/A   Overcast
12:55 AM 33.8 °F 29.6 °F 21.2 °F 60% 30.11 in 10.0 mi ESE 4.6 mph - N/A   Overcast
1:15 AM 33.8 °F 30.8 °F 21.2 °F 60% 30.11 in 10.0 mi ESE 3.5 mph - N/A   Overcast
1:35 AM 33.8 °F 29.6 °F 21.2 °F 60% 30.11 in 10.0 mi SE 4.6 mph - N/A   Overcast
1:55 AM 33.8 °F 29.6 °F 21.2 °F 60% 30.11 in 10.0 mi SE 4.6 mph - N/A   Overcast
2:15 AM 33.8 °F 29.6 °F 23.0 °F 65% 30.10 in 10.0 mi ESE 4.6 mph - N/A   Overcast
2:55 AM 33.8 °F 27.7 °F 23.0 °F 65% 30.08 in 10.0 mi East 6.9 mph - N/A   Overcast
3:15 AM 33.8 °F 29.6 °F 23.0 °F 65% 30.08 in 10.0 mi ESE 4.6 mph - N/A   Overcast
3:35 AM 33.8 °F 28.6 °F 23.0 °F 65% 30.08 in 10.0 mi ESE 5.8 mph - N/A   Overcast
3:55 AM 33.8 °F 28.6 °F 23.0 °F 65% 30.08 in 10.0 mi ESE 5.8 mph - N/A   Overcast
4:15 AM 33.8 °F 27.7 °F 24.8 °F 70% 30.08 in 10.0 mi ESE 6.9 mph - N/A   Overcast
4:35 AM 33.8 °F 27.0 °F 24.8 °F 70% 30.07 in 10.0 mi ESE 8.1 mph - N/A   Overcast
4:55 AM 33.8 °F 26.4 °F 24.8 °F 70% 30.07 in 10.0 mi ESE 9.2 mph - N/A   Overcast
5:15 AM 33.8 °F 27.0 °F 24.8 °F 70% 30.07 in 10.0 mi SE 8.1 mph - N/A   Overcast
5:35 AM 33.8 °F 27.0 °F 26.6 °F 75% 30.07 in 10.0 mi East 8.1 mph - N/A   Overcast
5:55 AM 33.8 °F 27.7 °F 24.8 °F 70% 30.07 in 10.0 mi ESE 6.9 mph - N/A   Overcast
6:15 AM 33.8 °F 27.0 °F 24.8 °F 70% 30.06 in 10.0 mi ESE 8.1 mph - N/A   Overcast
6:35 AM 33.8 °F 27.7 °F 26.6 °F 75% 30.05 in 10.0 mi ESE 6.9 mph - N/A   Overcast
6:55 AM 33.8 °F 25.8 °F 24.8 °F 70% 30.05 in 10.0 mi ESE 10.4 mph - N/A   Overcast
7:15 AM 33.8 °F 27.7 °F 24.8 °F 70% 30.05 in 10.0 mi ESE 6.9 mph - N/A   Overcast
7:35 AM 33.8 °F 27.0 °F 24.8 °F 70% 30.05 in 10.0 mi ESE 8.1 mph - N/A   Overcast
7:55 AM 35.6 °F 29.2 °F 24.8 °F 65% 30.05 in 10.0 mi ESE 8.1 mph 16.1 mph N/A   Overcast
8:15 AM 35.6 °F 27.5 °F 24.8 °F 65% 30.04 in 10.0 mi SE 11.5 mph 18.4 mph N/A   Partly Cloudy
8:35 AM 37.4 °F 31.4 °F 24.8 °F 60% 30.04 in 10.0 mi ESE 8.1 mph 20.7 mph N/A   Clear
8:55 AM 37.4 °F 28.9 °F 24.8 °F 60% 30.03 in 10.0 mi ESE 13.8 mph 21.9 mph N/A   Clear
9:15 AM 39.2 °F 32.0 °F 24.8 °F 56% 30.02 in 10.0 mi SE 11.5 mph 21.9 mph N/A   Mostly Cloudy
9:35 AM 41.0 °F 32.5 °F 26.6 °F 57% 30.00 in 10.0 mi ESE 17.3 mph 26.5 mph N/A   Mostly Cloudy
9:55 AM 42.8 °F 36.6 °F 26.6 °F 53% 29.99 in 10.0 mi ESE 11.5 mph 21.9 mph N/A   Clear
10:15 AM 42.8 °F 34.8 °F 26.6 °F 53% 29.98 in 10.0 mi SE 17.3 mph 25.3 mph N/A   Clear
10:35 AM 44.6 °F 37.4 °F 28.4 °F 53% 29.96 in 10.0 mi ESE 16.1 mph 23.0 mph N/A   Clear
11:15 AM 44.6 °F 37.2 °F 28.4 °F 53% 29.96 in 10.0 mi SE 17.3 mph 23.0 mph N/A   Clear
11:35 AM 46.4 °F 40.7 °F 28.4 °F 50% 29.94 in 10.0 mi ESE 12.7 mph 20.7 mph N/A   Clear
12:15 PM 46.4 °F 39.8 °F 28.4 °F 50% 29.91 in 10.0 mi ESE 16.1 mph 21.9 mph N/A   Clear
12:55 PM 48.2 °F - 30.2 °F 50% 29.88 in 10.0 mi ESE 17.3 mph 24.2 mph N/A   Overcast
1:15 PM 48.2 °F - 30.2 °F 50% 29.87 in 10.0 mi ESE 16.1 mph 23.0 mph N/A   Overcast
1:35 PM 48.2 °F - 28.4 °F 46% 29.86 in 10.0 mi ESE 15.0 mph 20.7 mph N/A   Overcast
1:55 PM 48.2 °F - 28.4 °F 46% 29.86 in 10.0 mi ESE 11.5 mph 20.7 mph N/A   Overcast
2:15 PM 48.2 °F - 28.4 °F 46% 29.86 in 10.0 mi SE 11.5 mph 16.1 mph N/A   Overcast
2:35 PM 46.4 °F 41.5 °F 28.4 °F 50% 29.86 in 10.0 mi ESE 10.4 mph 20.7 mph N/A   Overcast
2:55 PM 46.4 °F 40.7 °F 30.2 °F 53% 29.87 in 10.0 mi East 12.7 mph - N/A   Overcast
3:15 PM 46.4 °F 40.4 °F 30.2 °F 53% 29.86 in 10.0 mi East 13.8 mph 19.6 mph N/A   Overcast
3:35 PM 46.4 °F 40.7 °F 30.2 °F 53% 29.85 in 10.0 mi East 12.7 mph - N/A   Overcast
3:55 PM 46.4 °F 40.1 °F 30.2 °F 53% 29.85 in 10.0 mi East 15.0 mph 19.6 mph N/A   Overcast
4:15 PM 46.4 °F 39.8 °F 32.0 °F 57% 29.85 in 10.0 mi East 16.1 mph 21.9 mph N/A   Overcast
4:35 PM 44.6 °F 39.7 °F 30.2 °F 57% 29.85 in 10.0 mi East 9.2 mph 18.4 mph N/A   Overcast
4:55 PM 44.6 °F 38.8 °F 30.2 °F 57% 29.85 in 10.0 mi East 11.5 mph 18.4 mph N/A   Overcast
5:35 PM 44.6 °F 38.8 °F 30.2 °F 57% 29.86 in 10.0 mi East 11.5 mph 17.3 mph N/A   Overcast
5:55 PM 44.6 °F 37.8 °F 30.2 °F 57% 29.86 in 10.0 mi East 15.0 mph 18.4 mph N/A   Overcast
6:15 PM 44.6 °F 39.7 °F 30.2 °F 57% 29.86 in 10.0 mi East 9.2 mph 16.1 mph N/A   Overcast
6:35 PM 44.6 °F 37.8 °F 30.2 °F 57% 29.87 in 10.0 mi East 15.0 mph - N/A   Overcast
6:55 PM 44.6 °F 38.8 °F 30.2 °F 57% 29.87 in 10.0 mi ESE 11.5 mph 16.1 mph N/A   Overcast
7:15 PM 44.6 °F 39.7 °F 30.2 °F 57% 29.87 in 10.0 mi East 9.2 mph - N/A   Overcast
7:35 PM 44.6 °F 39.7 °F 30.2 °F 57% 29.87 in 10.0 mi East 9.2 mph - N/A   Overcast
7:55 PM 44.6 °F 40.2 °F 30.2 °F 57% 29.87 in 10.0 mi ESE 8.1 mph - N/A   Overcast
8:35 PM 44.6 °F 39.7 °F 30.2 °F 57% 29.87 in 10.0 mi East 9.2 mph - N/A   Overcast
8:55 PM 44.6 °F 38.4 °F 30.2 °F 57% 29.87 in 10.0 mi East 12.7 mph - N/A   Overcast
9:15 PM 44.6 °F 40.2 °F 30.2 °F 57% 29.87 in 10.0 mi East 8.1 mph - N/A   Overcast
9:35 PM 44.6 °F 40.7 °F 30.2 °F 57% 29.86 in 10.0 mi East 6.9 mph - N/A   Overcast
9:55 PM 44.6 °F 39.7 °F 30.2 °F 57% 29.86 in 10.0 mi East 9.2 mph - N/A   Overcast
10:15 PM 44.6 °F 40.7 °F 30.2 °F 57% 29.85 in 10.0 mi East 6.9 mph - N/A   Overcast
10:35 PM 44.6 °F 40.2 °F 30.2 °F 57% 29.85 in 10.0 mi East 8.1 mph - N/A   Overcast
10:55 PM 44.6 °F 40.7 °F 30.2 °F 57% 29.84 in 10.0 mi East 6.9 mph - N/A   Overcast
11:15 PM 42.8 °F 38.0 °F 32.0 °F 66% 29.83 in 10.0 mi NE 8.1 mph - N/A   Overcast
11:35 PM 42.8 °F 39.3 °F 28.4 °F 57% 29.83 in 10.0 mi ENE 5.8 mph - N/A   Overcast
11:55 PM 44.6 °F 39.7 °F 28.4 °F 53% 29.82 in 10.0 mi East 9.2 mph - N/A   Overcast